BREEZE-M R/B, 40365

Orbit data source: Space-Track

BREEZE-M R/B, 40365 is space debris in HEO originally from a launch on Sat, 27 Dec 2014 UTC launched from the Tyuratam Missile And Space Complex (TTMTR). Debris objects in space refer to the collection of defunct objects orbiting the Earth. Examples of debris include non-operational satellites, rocket bodies, and fragments generated from explosions, collisions, or faulty payload assembly.

Loading next visibility...
Identifier
40365, 2014-089B
Orbit
HEO
Country
Flag of CISCIS
Related business
Manufacturer
Khrunichev
Mission
Spacecraft
Bus & Motor
BRIZ, Unknown motor
Mass
~1,600 kg wet, 1,600 kg dry
Launch date (UTC)
2014-12-27 (11 years ago)
Launch vehicle
Unknown
Launch site
Tyuratam Missile And Space Complex (TTMTR)
Object type
Payload
Rocket body
Debris
Shape & HBR
Cyl, 2.0 m
Radar Cross Section
14.451 m², Large (>1 m²)

Expand to show TLE details & history
Last TLE update: 1 day ago

TLE from 1 day ago
0 BREEZE-M R/B
1 40365U 14089B   25259.84579785 -.00000056  00000-0  00000-0 0  9998
2 40365  24.0308  23.1483 6069130 259.4890  31.1048  2.19524330 85829
Epoch: 2025-09-16T20:17Z
TLE epoch observation values (Epoch: 2025-09-16T20:17:56.934Z)
Latitude
-0.00001°
Longitude
82.61128°
Altitude
11,393.785 km
Speed
5.378 km/s
True Right ascension
01h 32m 30s
True Declination
0° 00' 00"
Sunlit
Object was in daylight at epoch
Visualization orbit readout
Latitude
Unknown
Longitude
Unknown
Altitude
Unknown
Speed
Unknown
Apparent Right ascension
Unknown
Apparent Declination
Unknown
Sunlit
N/A
Visualization observer readout
Local Sidereal Time
12:42:17
Azimuth
Unknown
Elevation
Unknown
Doppler factor
Unknown
Orbital elements
Apogee altitude
33,811.906 km
Perigee altitude
3,453.25 km
Semi-major axis
25,010.715 km
Eccentricity
0.60691
Inclination
24.0308°
RAAN
23.1483°
Arg. of periapsis
259.489°
True anomaly
100.78214°
Mean anomaly
31.1048°
Eccentric anomaly
61.73106°
Mean motion
0.54872 °/min
Orbital period
656.07 mins
BSTAR
0
Loading maneuver chart data...
Computing Atmospheric mass density...
Loading historical data...
Loading historical data...
Loading historical data...
Loading historical data...
Loading historical data...
Loading historical data...
Loading historical data...
Other satellites on launch #89 in the year 2014 (2014-12-27 UTC)

Documentation

Showing up to 5 results
|